Regional Weather Roundup
Issued by NWS

Home | Current Version | Previous Version | Text Only | Print | Product List | Glossary On
Versions: 1 2 3 4 5 6 7 8 9 10 11 12 13 14 15 16 17 18 19 20 21 22 23 24 25 26 27 28 29 30 31 32 33 34 35 36 37 38 39 40 41 42 43 44 45 46 47 48 49 50
000
ASUS46 KLOX 231212
RWRCA

SOUTHERN CALIFORNIA WEATHER ROUNDUP
NATIONAL WEATHER SERVICE OXNARD CALIFORNIA
500 AM PDT TUE SEP 23 2014

NOTE: "FAIR" INDICATES FEW OR NO CLOUDS BELOW 12,000 FEET WITH NO
SIGNIFICANT WEATHER AND/OR OBSTRUCTIONS TO VISIBILITY.

  -  STATIONS PRECEEDED BY AN ASTERISK (*) ARE NOT NWS OR FAA
     STATIONS AND ARE NOT SUBJECT TO NWS AND FAA QUALITY CONTROL.

CAZ041-042-087-231300-
LA AND ORANGE COUNTY COASTAL AREAS


CITY           SKY/WX    TMP DP  RH WIND       PRES   REMARKS
L.A. DOWNTOWN  CLEAR     64  60  87 CALM      29.94R
L.A. AIRPORT   PTCLDY    65  61  86 N3        29.95R
LONG BEACH     CLEAR     65  61  87 CALM      29.93F

CITY           SKY/WX    TMP DP  RH WIND       PRES   REMARKS
AVALON           N/A     59 N/A N/A MISG        N/A
FULLERTON      CLEAR     64  59  83 CALM      29.93S
*GETTY CENTER    N/A     61  59  94 NE2         N/A
HAWTHORNE      CLEAR     65  61  87 CALM      29.95R
*LEO CARRILLO    N/A     60  53  77 N7          N/A
*LOS ALAMITOS  FOG       59  59 100 CALM      29.94S VSB 1
*REDONDO BEACH   N/A     59  56  89 CALM      29.93S
SANTA ANA      CLEAR     68  61  78 CALM      29.93F
STA MONICA APT CLOUDY    65  60  84 CALM      29.95R
*UCLA            N/A     63  57  82 N3        29.93R

$$

CAZ547-548-048-231300-
LA COUNTY VALLEYS AND INLAND EMPIRE


CITY           SKY/WX    TMP DP  RH WIND       PRES   REMARKS
BURBANK        CLEAR     63  52  67 CALM      29.95R
VAN NUYS       CLEAR     62  55  77 CALM      29.95R

CITY           SKY/WX    TMP DP  RH WIND       PRES   REMARKS
CORONA AIRPORT SUNNY     54  52  93 CALM      29.96S
*CHATSWORTH      N/A     61  51  70 CALM      29.92R
CHINO          CLEAR     60  58  92 CALM      29.96S FOG
*CLAREMONT       N/A     61  42  50 CALM        N/A
MARCH AFB      CLEAR     57  51  78 CALM      29.98S
*NORTHRIDGE      N/A     61  52  72 CALM        N/A
ONTARIO        CLEAR     67  59  75 CALM      29.95F
*PASADENA        N/A     64  57  77 E1          N/A
RIVERSIDE      CLEAR     63  59  87 CALM      29.96S
SAN BERNARDINO NOT AVBL
*SAN GABRIEL     N/A     63  58  85 CALM      29.91R
*SAN RAFAEL HI   N/A     70  47  44 SW5         N/A
*SAUGUS          N/A     62  46  55 E6          N/A
*WHITEMAN AP   NOT AVBL
*WOODLAND HILL   N/A     59  54  82 CALM        N/A

$$

CAZ054-055-231300-
LA AND SAN BERNARDINO COUNTY MOUNTAINS


CITY           SKY/WX    TMP DP  RH WIND       PRES   REMARKS
*ACTON           N/A     55  40  57 N8          N/A
*BIG BEAR AIRP SUNNY     36  30  80 CALM      30.29S
*BIG PINES       N/A     57   3  11 CALM        N/A
MT WILSON NWS    N/A     61  32  33 MISG        N/A
SANDBERG       CLEAR     68  29  23 S12       30.13S

$$

CAZ028-029-059-060-099-231300-
ANTELOPE VALLEY AND SURROUNDING AREAS


CITY           SKY/WX    TMP DP  RH WIND       PRES   REMARKS
LANCASTER      CLEAR     61  32  33 SW3       30.01S
PALMDALE       CLEAR     63  41  44 S5        30.02S
*POPPY PARK      N/A     63  28  26 W3          N/A

CITY           SKY/WX    TMP DP  RH WIND       PRES   REMARKS
29 PALMS       CLEAR     70  41  34 W9        30.05S
BARSTOW/DAGGET CLEAR     69  40  34 W9        29.98S
BISHOP         PTCLDY    50  37  61 N5        30.09R
CHINA LAKE     CLEAR     62  35  36 CALM      29.99R
EDWARDS AFB    CLEAR     61  40  45 S5        30.00R
MOJAVE         FAIR      64  39  39 NW6       30.02S
NEEDLES        CLEAR     75  40  28 CALM      29.92S
VICTORVILLE    CLEAR     61  43  51 S5        30.04S

$$

CAZ039-040-231300-
VENTURA AND SANTA BARBARA COUNTY COAST


CITY           SKY/WX    TMP DP  RH WIND       PRES   REMARKS
CAMARILLO      CLEAR     62  55  77 E3        29.93S
NWS OXNARD       N/A     58  54  87 CALM      29.94R
OXNARD AIRPORT CLEAR     59  55  87 NE3       29.93S
*POINT MUGU    FOG       60  56  86 NE3       29.94S VSB 1
SBA APT/GOLETA CLOUDY    63  59  87 E5        29.93R
*VENTURA         N/A     59  56  90 CALM      29.99S

$$

CAZ044-045-231300-
VENTURA COUNTY VALLEYS


CITY           SKY/WX    TMP DP  RH WIND       PRES   REMARKS
*SIMI VALLEY     N/A     59  52  76 CALM      29.89S
*OJAI            N/A     51  47  88 CALM      29.89R
*FILLMORE        N/A     53  50  87 CALM      29.84S

$$

CAZ053-231300-
VENTURA COUNTY MOUNTAINS


CITY           SKY/WX    TMP DP  RH WIND       PRES   REMARKS
*LOCKWOOD VLY    N/A     34  12  40 MISG        N/A
*ROSE VALLEY     N/A     37  34  87 MISG        N/A

$$

CAZ034-035-036-231300-
CENTRAL COAST AND SANTA YNEZ VALLEY


CITY           SKY/WX    TMP DP  RH WIND       PRES   REMARKS
SAN LUIS OBISP CLOUDY    57  55  93 CALM      29.96R
SANTA MARIA    CLOUDY    61  57  87 S7        29.96S FOG

CITY           SKY/WX    TMP DP  RH WIND       PRES   REMARKS
*CAL POLY SLO    N/A     55  55 100 CALM        N/A
*LOMPOC        CLOUDY    63  55  77 CALM      29.97R
*PISMO BEACH     N/A     59  57  95 CALM      29.96F
*SANTA YNEZ    FOG       55  55 100 CALM      29.97R VSB 1

$$

CAZ037-038-051-231300-
SAN LUIS OBISPO COUNTY INTERIOR AND CUYAMA VALLEY


CITY           SKY/WX    TMP DP  RH WIND       PRES   REMARKS
*CUYAMA          N/A     58  46  64 E2        29.91R
PASO ROBLES    CLEAR     56  50  80 CALM      29.97R

$$

CAZ032-033-061-231300-
SOUTHERN DESERTS


CITY           SKY/WX    TMP DP  RH WIND       PRES   REMARKS
BLYTHE         CLEAR     75  49  39 N6        29.87S
IMPERIAL       CLEAR     74  61  63 W5        29.84R
PALM SPRINGS   CLEAR     79  42  26 CALM      29.91R
THERMAL        CLEAR     65  50  58 NW3       29.84S

$$

ELSEWHERE ACROSS THE WESTERN UNITED STATES AND MEXICO


CITY           SKY/WX    TMP DP  RH WIND       PRES   REMARKS
DENVER, CO     MOCLDY    56  49  77 S9        30.12F
GRAND CANYON,  CLEAR     38  35  89 CALM      30.31S
HONOLULU, HI   PTCLDY    81  68  65 NE12      30.02F
KAHULUI, MAUI  CLEAR     77  70  78 NE14      30.02F
LAKE TAHOE, CA PTCLDY    40  34  79 CALM      30.20S
LAS VEGAS, NV  CLEAR     73  38  27 SW8       29.96R
MAMMOTH LAKES, FAIR      39  32  75 CALM      30.28S
MEXICO CITY, M PTCLDY    59  52  77 N2        30.32R
PHOENIX, AZ    CLEAR     80  57  45 SE3       29.91R
PORTLAND, OR   CLOUDY    62  58  86 CALM      29.85F
RENO, NV       MOCLDY    57  44  62 CALM      30.10R SMOKE
SALT LAKE CITY CLEAR     61  53  75 SE9       30.12R
SAN DIEGO, CA  CLOUDY    68  62  81 N5        29.94F
SAN FRANCISCO, PTCLDY    65  60  84 SW5       29.97S
SAN JOSE, CA   PTCLDY    59  55  87 CALM      29.98R
SEATTLE, WA    CLOUDY    59  57  93 CALM      29.88S
TIJUANA, MEX   CLOUDY    64  61  88 CALM      29.96F FOG

$$

STATION/POSITION TIME  TEMP    WIND        PRES    VSBY  WAVE
                       AIR SEA DIR/SP/G                  HT/PER
                 (UTC) (F)     (DEG/KT/KT) (MB)    (MI)  (FT/S)
POINT ARGUELLO B NOT AVBL
WEST SANTA BARBA 1200   63 63  330/ 16/ 19 1013.1R         3/11
POINT CONCEPTION NOT AVBL
EAST SANTA BARBA 1000   65 66  200/  8/  8 1013.4F
SANTA MONICA BAY 1200   67 70   CALM  /  2 1013.6R         2/13


USA.gov is the U.S. government's official web portal to all federal, state and local government web resources and services.